Location: Airlie Beach - Cannonvale QLD, Australia
(20.2768°S, 148.7558°E)
Time: 20:55:57
(UTC+10:00)

Hubble Space Telescope - Pass Details

Date: 30 March 2023
Orbit: 525 x 528 km, 28.5° (Epoch: 03 June)

Event Time Altitude Azimuth Distance (km) Brightness Sun altitude
Exits shadow 05:05:17 - 342° (NNW) 2,504 4.0 -16.3°
Reaches altitude 10° 05:09:05 10° 22° (NNE) 1,751 3.6 -15.4°
Maximum altitude 05:09:45 10° 31° (NNE) 1,730 3.7 -15.3°
Drops below altitude 10° 05:10:25 10° 41° (NE) 1,752 3.9 -15.1°
Sets 05:14:40 0° 83° (E) 2,646 6.2 -14.1°
